#Datum;Uhrzeit;WR;Pac;DaySum;Status;WR;Pac;DaySum;Status;Pdc1;Udc;Temp;WR;Pac;DaySum;Status;Pdc1;Udc;Temp;WR;Pac;DaySum;Status;Pdc1;Udc;Temp;WR;Pac;DaySum;Status;Pdc1;Pdc2;Udc1;Udc2;Temp;WR;Pac;DaySum;Status;Pdc1;Pdc2;Udc1;Udc2;Temp;WR;Pac;DaySum;Status;Pdc1;Udc;Temp;WR;Pac;DaySum;Status;Pdc1;Udc;Temp;WR;Pac;DaySum;Status;Pdc1;Udc;Temp
05.12.18;23:55:00;1;368;17027;0;2;0;4904;0;0;0;0;3;0;3100;0;0;0;0;4;0;4394;0;0;0;0;5;0;11331;0;0;0;0;0;0;6;0;8376;0;0;0;0;0;0;7;0;6638;0;0;0;0;8;0;6725;0;0;0;0;9;0;3538;0;0;0;0
05.12.18;23:50:00;1;373;16996;0;2;0;4904;0;0;0;0;3;0;3100;0;0;0;0;4;0;4394;0;0;0;0;5;0;11331;0;0;0;0;0;0;6;0;8376;0;0;0;0;0;0;7;0;6638;0;0;0;0;8;0;6725;0;0;0;0;9;0;3538;0;0;0;0
05.12.18;23:45:00;1;409;16965;0;2;0;4904;0;0;0;0;3;0;3100;0;0;0;0;4;0;4394;0;0;0;0;5;0;11331;0;0;0;0;0;0;6;0;8376;0;0;0;0;0;0;7;0;6638;0;0;0;0;8;0;6725;0;0;0;0;9;0;3538;0;0;0;0
05.12.18;23:40:00;1;410;16930;0;2;0;4904;0;0;0;0;3;0;3100;0;0;0;0;4;0;4394;0;0;0;0;5;0;11331;0;0;0;0;0;0;6;0;8376;0;0;0;0;0;0;7;0;6638;0;0;0;0;8;0;6725;0;0;0;0;9;0;3538;0;0;0;0
05.12.18;23:35:00;1;415;16896;0;2;0;4904;0;0;0;0;3;0;3100;0;0;0;0;4;0;4394;0;0;0;0;5;0;11331;0;0;0;0;0;0;6;0;8376;0;0;0;0;0;0;7;0;6638;0;0;0;0;8;0;6725;0;0;0;0;9;0;3538;0;0;0;0
05.12.18;23:30:00;1;376;16861;0;2;0;4904;0;0;0;0;3;0;3100;0;0;0;0;4;0;4394;0;0;0;0;5;0;11331;0;0;0;0;0;0;6;0;8376;0;0;0;0;0;0;7;0;6638;0;0;0;0;8;0;6725;0;0;0;0;9;0;3538;0;0;0;0
05.12.18;23:25:00;1;306;16830;0;2;0;4904;0;0;0;0;3;0;3100;0;0;0;0;4;0;4394;0;0;0;0;5;0;11331;0;0;0;0;0;0;6;0;8376;0;0;0;0;0;0;7;0;6638;0;0;0;0;8;0;6725;0;0;0;0;9;0;3538;0;0;0;0
05.12.18;23:20:00;1;310;16804;0;2;0;4904;0;0;0;0;3;0;3100;0;0;0;0;4;0;4394;0;0;0;0;5;0;11331;0;0;0;0;0;0;6;0;8376;0;0;0;0;0;0;7;0;6638;0;0;0;0;8;0;6725;0;0;0;0;9;0;3538;0;0;0;0
05.12.18;23:15:00;1;359;16778;0;2;0;4904;0;0;0;0;3;0;3100;0;0;0;0;4;0;4394;0;0;0;0;5;0;11331;0;0;0;0;0;0;6;0;8376;0;0;0;0;0;0;7;0;6638;0;0;0;0;8;0;6725;0;0;0;0;9;0;3538;0;0;0;0
05.12.18;23:10:00;1;347;16749;0;2;0;4904;0;0;0;0;3;0;3100;0;0;0;0;4;0;4394;0;0;0;0;5;0;11331;0;0;0;0;0;0;6;0;8376;0;0;0;0;0;0;7;0;6638;0;0;0;0;8;0;6725;0;0;0;0;9;0;3538;0;0;0;0
05.12.18;23:05:00;1;488;16718;0;2;0;4904;0;0;0;0;3;0;3100;0;0;0;0;4;0;4394;0;0;0;0;5;0;11331;0;0;0;0;0;0;6;0;8376;0;0;0;0;0;0;7;0;6638;0;0;0;0;8;0;6725;0;0;0;0;9;0;3538;0;0;0;0
05.12.18;23:00:00;1;480;16678;0;2;0;4904;0;0;0;0;3;0;3100;0;0;0;0;4;0;4394;0;0;0;0;5;0;11331;0;0;0;0;0;0;6;0;8376;0;0;0;0;0;0;7;0;6638;0;0;0;0;8;0;6725;0;0;0;0;9;0;3538;0;0;0;0
05.12.18;22:55:00;1;481;16638;0;2;0;4904;0;0;0;0;3;0;3100;0;0;0;0;4;0;4394;0;0;0;0;5;0;11331;2;0;0;0;0;0;6;0;8376;2;0;0;0;0;0;7;0;6638;0;0;0;0;8;0;6725;0;0;0;0;9;0;3538;0;0;0;0
05.12.18;22:50:00;1;539;16597;0;2;0;4904;0;0;0;0;3;0;3100;0;0;0;0;4;0;4394;0;0;0;0;5;0;11331;2;0;0;0;0;0;6;0;8376;2;0;0;0;0;0;7;0;6638;0;0;0;0;8;0;6725;0;0;0;0;9;0;3538;0;0;0;0
05.12.18;22:45:00;1;566;16552;0;2;0;4904;0;0;0;0;3;0;3100;0;0;0;0;4;0;4394;0;0;0;0;5;0;11331;2;0;0;0;0;0;6;0;8376;2;0;0;0;0;0;7;0;6638;0;0;0;0;8;0;6725;0;0;0;0;9;0;3538;0;0;0;0
05.12.18;22:40:00;1;574;16505;0;2;0;4904;0;0;0;0;3;0;3100;0;0;0;0;4;0;4394;0;0;0;0;5;0;11331;2;0;0;0;0;0;6;0;8376;2;0;0;0;0;0;7;0;6638;0;0;0;0;8;0;6725;0;0;0;0;9;0;3538;0;0;0;0
05.12.18;22:35:00;1;561;16458;0;2;0;4904;0;0;0;0;3;0;3100;0;0;0;0;4;0;4394;0;0;0;0;5;0;11331;2;0;0;0;0;0;6;0;8376;2;0;0;0;0;0;7;0;6638;0;0;0;0;8;0;6725;0;0;0;0;9;0;3538;0;0;0;0
05.12.18;22:30:00;1;482;16412;0;2;0;4904;0;0;0;0;3;0;3100;0;0;0;0;4;0;4394;0;0;0;0;5;0;11331;2;0;0;0;0;0;6;0;8376;2;0;0;0;0;0;7;0;6638;0;0;0;0;8;0;6725;0;0;0;0;9;0;3538;0;0;0;0
05.12.18;22:25:00;1;515;16371;0;2;0;4904;0;0;0;0;3;0;3100;0;0;0;0;4;0;4394;0;0;0;0;5;0;11331;2;0;0;0;0;0;6;0;8376;2;0;0;0;0;0;7;0;6638;0;0;0;0;8;0;6725;0;0;0;0;9;0;3538;0;0;0;0
05.12.18;22:20:00;1;572;16328;0;2;0;4904;0;0;0;0;3;0;3100;0;0;0;0;4;0;4394;0;0;0;0;5;0;11331;2;0;0;0;0;0;6;0;8376;2;0;0;0;0;0;7;0;6638;0;0;0;0;8;0;6725;0;0;0;0;9;0;3538;0;0;0;0
05.12.18;22:15:00;1;503;16280;0;2;0;4904;0;0;0;0;3;0;3100;0;0;0;0;4;0;4394;0;0;0;0;5;0;11331;2;0;0;0;0;0;6;0;8376;2;0;0;0;0;0;7;0;6638;0;0;0;0;8;0;6725;0;0;0;0;9;0;3538;0;0;0;0
05.12.18;22:10:00;1;513;16238;0;2;0;4904;0;0;0;0;3;0;3100;0;0;0;0;4;0;4394;0;0;0;0;5;0;11331;2;0;0;0;0;0;6;0;8376;2;0;0;0;0;0;7;0;6638;0;0;0;0;8;0;6725;0;0;0;0;9;0;3538;0;0;0;0
05.12.18;22:05:00;1;581;16194;0;2;0;4904;0;0;0;0;3;0;3100;0;0;0;0;4;0;4394;0;0;0;0;5;0;11331;2;0;0;0;0;0;6;0;8376;2;0;0;0;0;0;7;0;6638;0;0;0;0;8;0;6725;0;0;0;0;9;0;3538;0;0;0;0
05.12.18;22:00:00;1;580;16146;0;2;0;4904;0;0;0;0;3;0;3100;0;0;0;0;4;0;4394;0;0;0;0;5;0;11331;2;0;0;0;0;0;6;0;8376;2;0;0;0;0;0;7;0;6638;0;0;0;0;8;0;6725;0;0;0;0;9;0;3538;0;0;0;0
05.12.18;21:55:00;1;597;16098;0;2;0;4904;0;0;0;0;3;0;3100;0;0;0;0;4;0;4394;0;0;0;0;5;0;11331;2;0;0;0;0;0;6;0;8376;2;0;0;0;0;0;7;0;6638;0;0;0;0;8;0;6725;0;0;0;0;9;0;3538;0;0;0;0
05.12.18;21:50:00;1;670;16047;0;2;0;4904;0;0;0;0;3;0;3100;0;0;0;0;4;0;4394;0;0;0;0;5;0;11331;2;0;0;0;0;0;6;0;8376;2;0;0;0;0;0;7;0;6638;0;0;0;0;8;0;6725;0;0;0;0;9;0;3538;0;0;0;0
05.12.18;21:45:00;1;1097;15991;0;2;0;4904;0;0;0;0;3;0;3100;0;0;0;0;4;0;4394;0;0;0;0;5;0;11331;2;0;0;0;0;0;6;0;8376;2;0;0;0;0;0;7;0;6638;0;0;0;0;8;0;6725;0;0;0;0;9;0;3538;0;0;0;0
05.12.18;21:40:00;1;870;15884;0;2;0;4904;0;0;0;0;3;0;3100;0;0;0;0;4;0;4394;0;0;0;0;5;0;11331;2;0;0;0;0;0;6;0;8376;2;0;0;0;0;0;7;0;6638;0;0;0;0;8;0;6725;0;0;0;0;9;0;3538;0;0;0;0
05.12.18;21:35:00;1;820;15811;0;2;0;4904;0;0;0;0;3;0;3100;0;0;0;0;4;0;4394;0;0;0;0;5;0;11331;2;0;0;0;0;0;6;0;8376;2;0;0;0;0;0;7;0;6638;0;0;0;0;8;0;6725;0;0;0;0;9;0;3538;0;0;0;0
05.12.18;21:30:00;1;795;15743;0;2;0;4904;0;0;0;0;3;0;3100;0;0;0;0;4;0;4394;0;0;0;0;5;0;11331;2;0;0;0;0;0;6;0;8376;2;0;0;0;0;0;7;0;6638;0;0;0;0;8;0;6725;0;0;0;0;9;0;3538;0;0;0;0
05.12.18;21:25:00;1;814;15676;0;2;0;4904;0;0;0;0;3;0;3100;0;0;0;0;4;0;4394;0;0;0;0;5;0;11331;2;0;0;0;0;0;6;0;8376;2;0;0;0;0;0;7;0;6638;0;0;0;0;8;0;6725;0;0;0;0;9;0;3538;0;0;0;0
05.12.18;21:20:00;1;824;15608;0;2;0;4904;0;0;0;0;3;0;3100;0;0;0;0;4;0;4394;0;0;0;0;5;0;11331;2;0;0;0;0;0;6;0;8376;2;0;0;0;0;0;7;0;6638;0;0;0;0;8;0;6725;0;0;0;0;9;0;3538;0;0;0;0
05.12.18;21:15:00;1;819;15540;0;2;0;4904;0;0;0;0;3;0;3100;0;0;0;0;4;0;4394;0;0;0;0;5;0;11331;2;0;0;0;0;0;6;0;8376;2;0;0;0;0;0;7;0;6638;0;0;0;0;8;0;6725;0;0;0;0;9;0;3538;0;0;0;0
05.12.18;21:10:00;1;796;15471;0;2;0;4904;0;0;0;0;3;0;3100;0;0;0;0;4;0;4394;0;0;0;0;5;0;11331;2;0;0;0;0;0;6;0;8376;2;0;0;0;0;0;7;0;6638;0;0;0;0;8;0;6725;0;0;0;0;9;0;3538;0;0;0;0
05.12.18;21:05:00;1;1141;15391;0;2;0;4904;0;0;0;0;3;0;3100;0;0;0;0;4;0;4394;0;0;0;0;5;0;11331;2;0;0;0;0;0;6;0;8376;2;0;0;0;0;0;7;0;6638;0;0;0;0;8;0;6725;0;0;0;0;9;0;3538;0;0;0;0
05.12.18;21:00:00;1;659;15316;0;2;0;4904;0;0;0;0;3;0;3100;0;0;0;0;4;0;4394;0;0;0;0;5;0;11331;2;0;0;0;0;0;6;0;8376;2;0;0;0;0;0;7;0;6638;0;0;0;0;8;0;6725;0;0;0;0;9;0;3538;0;0;0;0
05.12.18;20:55:00;1;635;15261;0;2;0;4904;0;0;0;0;3;0;3100;0;0;0;0;4;0;4394;0;0;0;0;5;0;11331;2;0;0;0;0;0;6;0;8376;2;0;0;0;0;0;7;0;6638;0;0;0;0;8;0;6725;0;0;0;0;9;0;3538;0;0;0;0
05.12.18;20:50:00;1;635;15208;0;2;0;4904;0;0;0;0;3;0;3100;0;0;0;0;4;0;4394;0;0;0;0;5;0;11331;2;0;0;0;0;0;6;0;8376;2;0;0;0;0;0;7;0;6638;0;0;0;0;8;0;6725;0;0;0;0;9;0;3538;0;0;0;0
05.12.18;20:45:00;1;646;15155;0;2;0;4904;0;0;0;0;3;0;3100;0;0;0;0;4;0;4394;0;0;0;0;5;0;11331;2;0;0;0;0;0;6;0;8376;2;0;0;0;0;0;7;0;6638;0;0;0;0;8;0;6725;0;0;0;0;9;0;3538;0;0;0;0
05.12.18;20:40:00;1;627;15100;0;2;0;4904;0;0;0;0;3;0;3100;0;0;0;0;4;0;4394;0;0;0;0;5;0;11331;2;0;0;0;0;0;6;0;8376;2;0;0;0;0;0;7;0;6638;0;0;0;0;8;0;6725;0;0;0;0;9;0;3538;0;0;0;0
05.12.18;20:35:00;1;614;15048;0;2;0;4904;0;0;0;0;3;0;3100;0;0;0;0;4;0;4394;0;0;0;0;5;0;11331;2;0;0;0;0;0;6;0;8376;2;0;0;0;0;0;7;0;6638;0;0;0;0;8;0;6725;0;0;0;0;9;0;3538;0;0;0;0
05.12.18;20:30:00;1;615;14997;0;2;0;4904;0;0;0;0;3;0;3100;0;0;0;0;4;0;4394;0;0;0;0;5;0;11331;2;0;0;0;0;0;6;0;8376;2;0;0;0;0;0;7;0;6638;0;0;0;0;8;0;6725;0;0;0;0;9;0;3538;0;0;0;0
05.12.18;20:25:00;1;607;14945;0;2;0;4904;0;0;0;0;3;0;3100;0;0;0;0;4;0;4394;0;0;0;0;5;0;11331;2;0;0;0;0;0;6;0;8376;2;0;0;0;0;0;7;0;6638;0;0;0;0;8;0;6725;0;0;0;0;9;0;3538;0;0;0;0
05.12.18;20:20:00;1;607;14895;0;2;0;4904;0;0;0;0;3;0;3100;0;0;0;0;4;0;4394;0;0;0;0;5;0;11331;2;0;0;0;0;0;6;0;8376;2;0;0;0;0;0;7;0;6638;0;0;0;0;8;0;6725;0;0;0;0;9;0;3538;0;0;0;0
05.12.18;20:15:00;1;622;14844;0;2;0;4904;0;0;0;0;3;0;3100;0;0;0;0;4;0;4394;0;0;0;0;5;0;11331;2;0;0;0;0;0;6;0;8376;2;0;0;0;0;0;7;0;6638;0;0;0;0;8;0;6725;0;0;0;0;9;0;3538;0;0;0;0
05.12.18;20:10:00;1;622;14792;0;2;0;4904;0;0;0;0;3;0;3100;0;0;0;0;4;0;4394;0;0;0;0;5;0;11331;2;0;0;0;0;0;6;0;8376;2;0;0;0;0;0;7;0;6638;0;0;0;0;8;0;6725;0;0;0;0;9;0;3538;0;0;0;0
05.12.18;20:05:00;1;623;14740;0;2;0;4904;0;0;0;0;3;0;3100;0;0;0;0;4;0;4394;0;0;0;0;5;0;11331;2;0;0;0;0;0;6;0;8376;2;0;0;0;0;0;7;0;6638;0;0;0;0;8;0;6725;0;0;0;0;9;0;3538;0;0;0;0
05.12.18;20:00:00;1;674;14688;0;2;0;4904;0;0;0;0;3;0;3100;0;0;0;0;4;0;4394;0;0;0;0;5;0;11331;2;0;0;0;0;0;6;0;8376;2;0;0;0;0;0;7;0;6638;0;0;0;0;8;0;6725;0;0;0;0;9;0;3538;0;0;0;0
05.12.18;19:55:00;1;1051;14631;0;2;0;4904;0;0;0;0;3;0;3100;0;0;0;0;4;0;4394;0;0;0;0;5;0;11331;2;0;0;0;0;0;6;0;8376;2;0;0;0;0;0;7;0;6638;0;0;0;0;8;0;6725;0;0;0;0;9;0;3538;0;0;0;0
05.12.18;19:50:00;1;1024;14544;0;2;0;4904;0;0;0;0;3;0;3100;0;0;0;0;4;0;4394;0;0;0;0;5;0;11331;2;0;0;0;0;0;6;0;8376;2;0;0;0;0;0;7;0;6638;0;0;0;0;8;0;6725;0;0;0;0;9;0;3538;0;0;0;0
05.12.18;19:45:00;1;994;14460;0;2;0;4904;0;0;0;0;3;0;3100;0;0;0;0;4;0;4394;0;0;0;0;5;0;11331;2;0;0;0;0;0;6;0;8376;2;0;0;0;0;0;7;0;6638;0;0;0;0;8;0;6725;0;0;0;0;9;0;3538;0;0;0;0
05.12.18;19:40:00;1;962;14376;0;2;0;4904;0;0;0;0;3;0;3100;0;0;0;0;4;0;4394;0;0;0;0;5;0;11331;2;0;0;0;0;0;6;0;8376;2;0;0;0;0;0;7;0;6638;0;0;0;0;8;0;6725;0;0;0;0;9;0;3538;0;0;0;0
05.12.18;19:35:00;1;1008;14295;0;2;0;4904;0;0;0;0;3;0;3100;0;0;0;0;4;0;4394;0;0;0;0;5;0;11331;2;0;0;0;0;0;6;0;8376;2;0;0;0;0;0;7;0;6638;0;0;0;0;8;0;6725;0;0;0;0;9;0;3538;0;0;0;0
05.12.18;19:30:00;1;951;14215;0;2;0;4904;0;0;0;0;3;0;3100;0;0;0;0;4;0;4394;0;0;0;0;5;0;11331;2;0;0;0;0;0;6;0;8376;2;0;0;0;0;0;7;0;6638;0;0;0;0;8;0;6725;0;0;0;0;9;0;3538;0;0;0;0
05.12.18;19:25:00;1;974;14135;0;2;0;4904;0;0;0;0;3;0;3100;0;0;0;0;4;0;4394;0;0;0;0;5;0;11331;2;0;0;0;0;0;6;0;8376;2;0;0;0;0;0;7;0;6638;0;0;0;0;8;0;6725;0;0;0;0;9;0;3538;0;0;0;0
05.12.18;19:20:00;1;1295;14050;0;2;0;4904;0;0;0;0;3;0;3100;0;0;0;0;4;0;4394;0;0;0;0;5;0;11331;2;0;0;0;0;0;6;0;8376;2;0;0;0;0;0;7;0;6638;0;0;0;0;8;0;6725;0;0;0;0;9;0;3538;0;0;0;0
05.12.18;19:15:00;1;1223;13937;0;2;0;4904;0;0;0;0;3;0;3100;0;0;0;0;4;0;4394;0;0;0;0;5;0;11331;2;0;0;0;0;0;6;0;8376;2;0;0;0;0;0;7;0;6638;0;0;0;0;8;0;6725;0;0;0;0;9;0;3538;0;0;0;0
05.12.18;19:10:00;1;1078;13843;0;2;0;4904;0;0;0;0;3;0;3100;0;0;0;0;4;0;4394;0;0;0;0;5;0;11331;2;0;0;0;0;0;6;0;8376;2;0;0;0;0;0;7;0;6638;0;0;0;0;8;0;6725;0;0;0;0;9;0;3538;0;0;0;0
05.12.18;19:05:00;1;931;13755;0;2;0;4904;0;0;0;0;3;0;3100;0;0;0;0;4;0;4394;0;0;0;0;5;0;11331;2;0;0;0;0;0;6;0;8376;2;0;0;0;0;0;7;0;6638;0;0;0;0;8;0;6725;0;0;0;0;9;0;3538;0;0;0;0
05.12.18;19:00:00;1;955;13677;0;2;0;4904;0;0;0;0;3;0;3100;0;0;0;0;4;0;4394;0;0;0;0;5;0;11331;2;0;0;0;0;0;6;0;8376;2;0;0;0;0;0;7;0;6638;0;0;0;0;8;0;6725;0;0;0;0;9;0;3538;0;0;0;0
05.12.18;18:55:00;1;990;13597;0;2;0;4904;0;0;0;0;3;0;3100;0;0;0;0;4;0;4394;0;0;0;0;5;0;11331;2;0;0;0;0;0;6;0;8376;2;0;0;0;0;0;7;0;6638;0;0;0;0;8;0;6725;0;0;0;0;9;0;3538;0;0;0;0
05.12.18;18:50:00;1;958;13515;0;2;0;4904;0;0;0;0;3;0;3100;0;0;0;0;4;0;4394;0;0;0;0;5;0;11331;2;0;0;0;0;0;6;0;8376;2;0;0;0;0;0;7;0;6638;0;0;0;0;8;0;6725;0;0;0;0;9;0;3538;0;0;0;0
05.12.18;18:45:00;1;918;13435;0;2;0;4904;0;0;0;0;3;0;3100;0;0;0;0;4;0;4394;0;0;0;0;5;0;11331;2;0;0;0;0;0;6;0;8376;2;0;0;0;0;0;7;0;6638;0;0;0;0;8;0;6725;0;0;0;0;9;0;3538;0;0;0;0
05.12.18;18:40:00;1;958;13359;0;2;0;4904;0;0;0;0;3;0;3100;0;0;0;0;4;0;4394;0;0;0;0;5;0;11331;2;0;0;0;0;0;6;0;8376;2;0;0;0;0;0;7;0;6638;0;0;0;0;8;0;6725;0;0;0;0;9;0;3538;0;0;0;0
05.12.18;18:35:00;1;1052;13279;0;2;0;4904;0;0;0;0;3;0;3100;0;0;0;0;4;0;4394;0;0;0;0;5;0;11331;2;0;0;0;0;0;6;0;8376;2;0;0;0;0;0;7;0;6638;0;0;0;0;8;0;6725;0;0;0;0;9;0;3538;0;0;0;0
05.12.18;18:30:00;1;967;13191;0;2;0;4904;0;0;0;0;3;0;3100;0;0;0;0;4;0;4394;0;0;0;0;5;0;11331;2;0;0;0;0;0;6;0;8376;2;0;0;0;0;0;7;0;6638;0;0;0;0;8;0;6725;0;0;0;0;9;0;3538;0;0;0;0
05.12.18;18:25:00;1;892;13088;0;2;0;4904;0;0;0;0;3;0;3100;0;0;0;0;4;0;4394;0;0;0;0;5;0;11331;2;0;0;0;0;0;6;0;8376;2;0;0;0;0;0;7;0;6638;0;0;0;0;8;0;6725;0;0;0;0;9;0;3538;0;0;0;0
05.12.18;18:20:00;1;1096;13010;0;2;0;4904;0;0;0;0;3;0;3100;0;0;0;0;4;0;4394;0;0;0;0;5;0;11331;2;0;0;0;0;0;6;0;8376;2;0;0;0;0;0;7;0;6638;0;0;0;0;8;0;6725;0;0;0;0;9;0;3538;0;0;0;0
05.12.18;18:15:00;1;920;12917;0;2;0;4904;0;0;0;0;3;0;3100;0;0;0;0;4;0;4394;0;0;0;0;5;0;11331;2;0;0;0;0;0;6;0;8376;2;0;0;0;0;0;7;0;6638;0;0;0;0;8;0;6725;0;0;0;0;9;0;3538;0;0;0;0
05.12.18;18:10:00;1;1029;12840;0;2;0;4904;0;0;0;0;3;0;3100;0;0;0;0;4;0;4394;0;0;0;0;5;0;11331;2;0;0;0;0;0;6;0;8376;2;0;0;0;0;0;7;0;6638;0;0;0;0;8;0;6725;0;0;0;0;9;0;3538;0;0;0;0
05.12.18;18:05:00;1;996;12752;0;2;0;4904;0;0;0;0;3;0;3100;0;0;0;0;4;0;4394;0;0;0;0;5;0;11331;2;0;0;0;0;0;6;0;8376;2;0;0;0;0;0;7;0;6638;0;0;0;0;8;0;6725;0;0;0;0;9;0;3538;0;0;0;0
05.12.18;18:00:00;1;974;12669;0;2;0;4904;0;0;0;0;3;0;3100;0;0;0;0;4;0;4394;0;0;0;0;5;0;11331;2;0;0;0;0;0;6;0;8376;2;0;0;0;0;0;7;0;6638;0;0;0;0;8;0;6725;0;0;0;0;9;0;3538;0;0;0;0
05.12.18;17:55:00;1;921;12586;0;2;0;4904;0;0;0;0;3;0;3100;0;0;0;0;4;0;4394;0;0;0;0;5;0;11331;2;0;0;0;0;0;6;0;8376;2;0;0;0;0;0;7;0;6638;0;0;0;0;8;0;6725;0;0;0;0;9;0;3538;0;0;0;0
05.12.18;17:50:00;1;738;12513;0;2;0;4904;0;0;0;0;3;0;3100;0;0;0;0;4;0;4394;0;0;0;0;5;0;11331;2;0;0;0;0;0;6;0;8376;2;0;0;0;0;0;7;0;6638;0;0;0;0;8;0;6725;0;0;0;0;9;0;3538;0;0;0;0
05.12.18;17:45:00;1;848;12450;0;2;0;4904;0;0;0;0;3;0;3100;0;0;0;0;4;0;4394;0;0;0;0;5;0;11331;2;0;0;0;0;0;6;0;8376;2;0;0;0;0;0;7;0;6638;0;0;0;0;8;0;6725;0;0;0;0;9;0;3538;0;0;0;0
05.12.18;17:40:00;1;829;12380;0;2;0;4904;0;0;0;0;3;0;3100;0;0;0;0;4;0;4394;0;0;0;0;5;0;11331;2;0;0;0;0;0;6;0;8376;2;0;0;0;0;0;7;0;6638;0;0;0;0;8;0;6725;0;0;0;0;9;0;3538;0;0;0;0
05.12.18;17:35:00;1;816;12310;0;2;0;4904;0;0;0;0;3;0;3100;0;0;0;0;4;0;4394;0;0;0;0;5;0;11331;2;0;0;0;0;0;6;0;8376;2;0;0;0;0;0;7;0;6638;0;0;0;0;8;0;6725;0;0;0;0;9;0;3538;0;0;0;0
05.12.18;17:30:00;1;901;12241;0;2;0;4904;0;0;0;0;3;0;3100;0;0;0;0;4;0;4394;0;0;0;0;5;0;11331;2;0;0;0;0;0;6;0;8376;2;0;0;0;0;0;7;0;6638;0;0;0;0;8;0;6725;0;0;0;0;9;0;3538;0;0;0;0
05.12.18;17:25:00;1;651;12166;0;2;0;4904;0;0;0;0;3;0;3100;0;0;0;0;4;0;4394;0;0;0;0;5;0;11331;2;0;0;0;0;0;6;0;8376;2;0;0;0;0;0;7;0;6638;0;0;0;0;8;0;6725;0;0;0;0;9;0;3538;0;0;0;0
05.12.18;17:20:00;1;624;12114;0;2;0;4904;0;0;0;0;3;0;3100;0;0;0;0;4;0;4394;0;0;0;0;5;0;11331;2;0;0;0;0;0;6;0;8376;2;0;0;0;0;0;7;0;6638;0;0;0;0;8;0;6725;0;0;0;0;9;0;3538;0;0;0;0
05.12.18;17:15:00;1;755;12061;0;2;0;4904;0;0;0;0;3;0;3100;0;0;0;0;4;0;4394;0;0;0;0;5;0;11331;2;0;0;0;0;0;6;0;8376;2;0;0;0;0;0;7;0;6638;0;0;0;0;8;0;6725;0;0;0;0;9;0;3538;0;0;0;0
05.12.18;17:10:00;1;673;12000;0;2;0;4904;0;0;0;0;3;0;3100;0;0;0;0;4;0;4394;0;0;0;0;5;0;11331;2;0;0;0;0;0;6;0;8376;2;0;0;0;0;0;7;0;6638;0;0;0;0;8;0;6725;0;0;0;0;9;0;3538;0;0;0;0
05.12.18;17:05:00;1;744;11944;0;2;0;4904;0;0;0;0;3;0;3100;0;0;0;0;4;0;4394;0;0;0;0;5;0;11331;2;0;0;0;0;0;6;0;8376;2;0;0;0;0;0;7;0;6638;0;0;0;0;8;0;6725;0;0;0;0;9;0;3538;0;0;0;0
05.12.18;17:00:00;1;1019;11869;0;2;0;4904;0;0;0;0;3;0;3100;0;0;0;0;4;0;4394;0;0;0;0;5;0;11331;2;0;0;0;0;0;6;0;8376;2;0;0;0;0;0;7;0;6638;0;0;0;0;8;0;6725;0;0;0;0;9;0;3538;0;0;0;0
05.12.18;16:55:00;1;832;11787;0;2;0;4904;0;0;0;0;3;0;3100;0;0;0;0;4;0;4394;0;0;0;0;5;0;11331;2;0;0;0;0;0;6;0;8376;2;0;0;0;0;0;7;0;6638;0;0;0;0;8;0;6725;0;0;0;0;9;0;3538;0;0;0;0
05.12.18;16:50:00;1;1652;11708;0;2;0;4904;0;0;0;0;3;0;3100;0;0;0;0;4;0;4394;0;0;0;0;5;0;11331;2;0;0;0;0;0;6;0;8376;2;0;0;0;0;0;7;0;6638;0;0;0;0;8;0;6725;0;0;0;0;9;0;3538;0;0;0;0
05.12.18;16:45:00;1;804;11624;0;2;0;4904;0;0;0;0;3;0;3100;0;0;0;0;4;0;4394;0;0;0;0;5;0;11331;2;0;0;0;0;0;6;0;8376;2;0;0;0;0;0;7;0;6638;0;0;0;0;8;0;6725;0;0;0;0;9;0;3538;0;0;0;0
05.12.18;16:40:00;1;652;11561;0;2;0;4904;0;0;0;0;3;0;3100;0;0;0;0;4;0;4394;0;0;0;0;5;0;11331;2;0;0;0;0;0;6;0;8376;2;0;0;0;0;0;7;0;6638;0;0;0;0;8;0;6725;0;0;0;0;9;0;3538;0;0;0;0
05.12.18;16:35:00;1;624;11504;0;2;0;4904;0;0;0;0;3;0;3100;0;0;0;0;4;0;4394;0;0;0;0;5;0;11331;2;0;0;0;0;0;6;0;8376;2;0;0;0;0;0;7;0;6638;0;0;0;0;8;0;6725;0;0;0;0;9;0;3538;0;0;0;0
05.12.18;16:30:00;1;529;11452;0;2;0;4904;0;0;220;10;3;0;3100;6;0;290;15;4;0;4394;0;0;10;1;5;0;11331;2;0;0;0;0;0;6;0;8376;2;0;0;0;0;0;7;0;6638;0;0;0;0;8;0;6725;0;0;0;0;9;0;3538;0;0;0;0
05.12.18;16:25:00;1;495;11408;0;2;0;4904;6;0;301;12;3;0;3100;6;0;347;15;4;0;4394;2;0;80;10;5;0;11331;2;0;1;32;31;3;6;0;8376;1;0;0;0;0;0;7;0;6638;0;0;0;0;8;0;6725;0;0;0;0;9;0;3538;0;0;0;0
05.12.18;16:20:00;1;533;11367;0;2;0;4904;6;0;346;12;3;0;3100;6;0;415;15;4;0;4394;1;0;126;10;5;0;11331;26;0;0;374;427;21;6;0;8376;23;7;2;180;446;20;7;0;6638;0;0;178;10;8;0;6725;0;0;180;9;9;0;3538;0;0;236;9
05.12.18;16:15:00;1;726;11322;0;2;0;4904;6;0;377;12;3;0;3100;6;2;452;15;4;0;4394;1;0;174;10;5;8;11331;1;0;0;396;571;22;6;0;8376;23;5;3;419;321;20;7;0;6638;6;0;336;15;8;0;6725;6;0;342;14;9;0;3538;6;0;359;11
05.12.18;16:10:00;1;861;11262;0;2;0;4904;6;0;398;12;3;1;3100;6;3;467;15;4;0;4394;1;0;210;11;5;8;11331;1;0;2;417;657;22;6;0;8376;23;5;4;384;445;21;7;0;6638;6;1;392;15;8;0;6725;6;0;411;14;9;0;3538;6;0;425;11
05.12.18;16:05:00;1;1053;11187;0;2;0;4904;6;0;410;12;3;0;3100;6;0;523;15;4;0;4394;1;0;209;11;5;27;11330;1;3;5;414;657;23;6;0;8376;23;6;4;437;587;21;7;0;6638;3;3;413;15;8;0;6725;3;0;424;15;9;0;3538;6;1;469;11
05.12.18;16:00:00;1;551;11120;0;2;2;4904;6;7;413;13;3;1;3100;4;9;492;15;4;0;4394;3;0;214;11;5;86;11327;4;21;23;384;610;23;6;45;8376;4;23;22;459;454;22;7;0;6638;6;4;461;15;8;0;6725;6;4;462;15;9;0;3538;4;1;487;11
05.12.18;15:55:00;1;547;11074;0;2;11;4904;3;23;402;13;3;2;3100;6;8;521;15;4;0;4394;3;0;200;12;5;104;11320;4;33;32;384;610;23;6;10;8372;23;10;4;569;527;22;7;2;6638;6;5;468;16;8;2;6725;6;5;472;15;9;3;3538;3;8;493;11
05.12.18;15:50:00;1;2218;11028;0;2;13;4903;6;23;409;13;3;4;3100;6;16;504;15;4;2;4394;3;2;200;12;5;121;11311;4;44;40;384;610;23;6;57;8371;4;45;19;459;211;23;7;1;6638;6;7;482;16;8;6;6725;6;14;461;15;9;1;3537;6;4;532;12
05.12.18;15:45:00;1;498;10843;0;2;50;4901;4;79;358;13;3;4;3100;6;10;533;15;4;12;4394;3;13;199;12;5;149;11301;4;53;49;384;610;23;6;69;8366;4;48;22;458;211;23;7;3;6638;6;9;487;16;8;2;6724;6;10;488;16;9;2;3537;6;6;534;12
05.12.18;15:40:00;1;497;10802;0;2;60;4897;4;91;370;13;3;5;3099;6;9;542;15;4;21;4393;3;22;198;12;5;171;11289;4;66;54;384;610;23;6;81;8360;4;63;33;459;211;23;7;38;6637;4;67;353;16;8;36;6724;6;59;384;16;9;2;3537;6;7;548;12
05.12.18;15:35:00;1;1879;10760;0;2;73;4892;4;102;370;13;3;0;3099;6;0;569;15;4;24;4391;3;25;198;12;5;190;11274;4;83;72;384;610;23;6;93;8353;4;63;30;459;211;23;7;52;6634;4;85;411;17;8;52;6721;4;78;359;16;9;4;3537;6;9;548;12
05.12.18;15:30:00;1;1214;10580;0;2;89;4886;4;121;365;13;3;15;3099;4;25;527;16;4;45;4389;3;47;198;12;5;220;11258;4;102;89;384;610;23;6;106;8345;4;82;39;458;211;23;7;58;6630;4;93;453;17;8;67;6717;4;96;392;16;9;5;3536;6;8;553;12
05.12.18;15:25:00;1;477;10467;0;2;114;4879;4;145;368;13;3;62;3098;4;98;452;16;4;70;4386;3;73;198;12;5;265;11239;4;120;109;384;610;23;6;127;8336;4;113;50;459;211;23;7;90;6625;4;125;441;17;8;91;6711;4;127;399;16;9;19;3536;3;28;528;12
05.12.18;15:20:00;1;510;10427;0;2;135;4869;4;168;380;14;3;77;3092;4;111;458;16;4;88;4380;3;91;208;12;5;309;11217;4;144;123;384;610;23;6;149;8325;4;105;47;459;211;23;7;124;6618;4;144;391;17;8;118;6704;4;149;428;16;9;22;3534;6;30;553;13
05.12.18;15:15:00;1;638;10383;0;2;155;4858;4;191;385;14;3;88;3086;4;130;480;16;4;108;4372;5;112;225;12;5;349;11191;4;169;150;384;610;23;6;166;8313;4;94;43;458;211;23;7;140;6608;4;169;389;17;8;142;6694;4;177;435;17;9;72;3532;4;102;454;13
05.12.18;15:10:00;1;642;10337;0;2;172;4845;4;207;382;14;3;99;3079;4;140;497;17;4;128;4364;5;133;231;13;5;381;11162;4;185;163;389;610;23;6;220;8299;4;137;105;458;351;23;7;158;6596;4;189;415;17;8;159;6682;4;196;417;17;9;84;3526;4;112;477;13
05.12.18;15:05:00;1;455;10285;0;2;210;4831;4;245;389;14;3;124;3070;4;163;514;17;4;158;4353;5;164;228;13;5;460;11130;4;222;194;402;633;24;6;316;8280;4;120;146;459;555;23;7;119;6583;4;141;258;10;8;206;6669;4;241;435;17;9;109;3519;4;139;504;14
05.12.18;15:00:00;1;488;10247;0;2;230;4814;4;269;389;14;3;136;3060;4;179;516;17;4;188;4340;5;195;234;13;5;504;11091;4;248;213;413;638;24;6;342;8253;4;156;190;459;563;23;7;0;6544;0;0;0;0;8;113;6642;0;136;226;8;9;125;3510;4;153;519;14
05.12.18;14:55:00;1;2455;10165;0;2;263;4794;4;301;393;14;3;158;3049;4;199;501;17;4;212;4324;5;221;236;13;5;540;11049;4;274;230;403;609;24;6;374;8224;4;165;199;458;562;23;7;53;6544;0;60;93;3;8;155;6634;4;177;273;10;9;63;3494;0;76;209;5
05.12.18;14:50:00;1;2512;9952;0;2;274;4773;4;312;392;15;3;166;3035;4;207;507;17;4;220;4307;5;229;235;13;5;566;11003;4;285;241;403;635;24;6;391;8193;4;189;223;459;570;23;7;50;6528;4;56;80;2;8;144;6611;4;161;241;8;9;128;3488;4;154;434;11
05.12.18;14:45:00;1;2387;9745;0;2;253;4750;4;290;387;15;3;152;3022;4;193;515;17;4;201;4288;5;210;234;13;5;540;10956;4;272;228;412;620;24;6;372;8160;4;180;222;463;565;23;7;156;6503;4;182;285;10;8;265;6588;4;306;481;17;9;143;3476;4;173;526;14
05.12.18;14:40:00;1;2388;9547;0;2;245;4729;4;283;394;15;3;150;3009;4;186;491;17;4;191;4272;5;199;236;13;5;531;10912;4;266;230;410;616;24;6;406;8129;4;212;215;577;563;23;7;247;6482;4;295;460;18;8;101;6566;4;117;186;6;9;105;3464;4;132;416;11
05.12.18;14:35:00;1;2445;9348;0;2;287;4709;4;326;395;15;3;177;2997;4;219;505;17;4;232;4256;5;242;234;13;5;627;10868;4;310;267;421;654;24;6;466;8095;4;228;240;574;563;23;7;246;6461;4;280;379;15;8;196;6541;0;227;325;11;9;25;3449;0;32;87;2
05.12.18;14:30:00;1;2495;9144;0;2;413;4684;4;458;401;16;3;253;2982;4;298;518;18;4;345;4236;5;359;239;14;5;868;10813;4;421;360;426;675;24;6;634;8055;4;322;329;596;574;23;7;0;6409;0;0;0;0;8;408;6515;0;444;393;15;9;179;3436;0;206;354;10
05.12.18;14:25:00;1;2501;8936;0;2;456;4650;4;505;409;16;3;283;2961;4;329;504;18;4;389;4208;5;405;240;14;5;921;10741;4;460;391;421;684;24;6;698;8001;4;360;355;600;581;23;7;217;6409;4;237;190;7;8;216;6482;4;236;193;7;9;290;3421;4;329;539;15
05.12.18;14:20:00;1;2511;8727;0;2;489;4612;4;538;408;16;3;302;2937;4;351;512;18;4;420;4175;5;437;241;14;5;1002;10664;4;505;428;420;679;24;6;757;7943;4;388;387;598;574;23;7;380;6363;4;412;322;12;8;279;6421;0;304;245;9;9;300;3397;4;340;539;15
05.12.18;14:15:00;1;2501;8517;0;2;563;4571;4;615;411;16;3;350;2912;4;400;527;18;4;493;4140;5;513;246;14;5;1147;10580;4;584;499;419;700;24;6;873;7879;4;447;452;597;579;23;7;669;6317;4;716;497;18;8;274;6364;0;297;193;7;9;355;3372;4;399;531;15
05.12.18;14:10:00;1;2508;8309;0;2;551;4525;4;600;410;16;3;343;2883;4;394;523;18;4;485;4099;5;505;244;14;5;1151;10483;4;568;489;429;681;24;6;865;7806;4;434;431;601;580;23;7;536;6250;0;583;413;15;8;544;6339;4;591;408;15;9;350;3343;4;395;536;16
05.12.18;14:05:00;1;2508;8100;0;2;601;4479;4;653;408;17;3;375;2854;4;427;527;18;4;527;4059;5;549;244;14;5;1233;10388;4;628;526;425;703;24;6;926;7734;4;478;472;597;579;23;7;723;6206;4;777;481;18;8;723;6285;4;776;491;18;9;385;3314;4;430;529;16
05.12.18;14:00:00;1;2484;7891;0;2;634;4428;4;686;411;17;3;395;2823;4;446;527;19;4;552;4015;5;576;245;14;5;1282;10284;4;654;545;428;687;24;6;956;7656;4;483;482;603;579;23;7;474;6146;4;504;285;10;8;784;6224;4;835;486;18;9;84;3260;0;93;106;3
05.12.18;13:55:00;1;2656;7682;0;2;803;4375;4;864;415;17;3;500;2790;4;557;536;19;4;688;3969;5;718;246;15;5;1609;10178;4;828;693;430;695;24;6;1196;7575;4;608;600;605;586;23;7;1014;6081;4;1078;487;18;8;582;6159;4;615;285;10;9;528;3247;4;579;534;16
05.12.18;13:50:00;1;2657;7460;0;2;1503;4309;4;1587;418;17;3;927;2748;4;1001;538;19;4;1071;3912;5;1116;261;14;5;2763;10037;4;1474;1215;442;724;24;6;2037;7470;4;1040;1003;616;599;23;7;1983;5996;4;2091;508;18;8;1416;6079;4;1488;334;12;9;327;3203;4;352;183;5
05.12.18;13:45:00;1;2527;7239;0;2;1034;4186;4;1099;418;17;3;655;2672;4;719;531;19;4;882;3823;5;919;252;14;5;2000;9807;4;1051;875;437;709;24;6;1532;7295;4;798;777;614;589;23;7;1440;5834;4;1504;502;18;8;497;5771;0;527;198;7;9;502;3114;4;542;329;9